K5TWC Weather Reports


time (UTC)temp
C
wind
direction
speed
KPH
gust
KPH
rain 1hr
cm
rain 24hr
cm
rain mn
cm
humidity
%
barometer
mb
20260906000503 36 152 8.0 22.5 0.00 0.00 0.00 50 1011.5
20260906000013 36 108 9.7 20.9 0.00 0.00 0.00 49 1011.5
20260905235506 37 166 3.2 9.7 0.00 0.00 0.00 47 1011.4
20260905235009 37 165 0.0 8.0 0.00 0.00 0.00 45 1011.4
20260905234514 37 163 1.6 8.0 0.00 0.00 0.00 45 1011.2
20260905234007 37 178 0.0 6.4 0.00 0.00 0.00 44 1011.2
20260905233510 37 178 0.0 8.0 0.00 0.00 0.00 43 1011.1
20260905233021 38 193 1.6 8.0 0.00 0.00 0.00 44 1011.1
20260905232509 38 208 0.0 4.8 0.00 0.00 0.00 43 1011.1
20260905232013 38 208 0.0 4.8 0.00 0.00 0.00 43 1011.1
20260905231534 38 211 0.0 4.8 0.00 0.00 0.00 42 1011.2
20260905231016 38 215 0.0 6.4 0.00 0.00 0.00 43 1011.2
20260905230512 38 216 0.0 6.4 0.00 0.00 0.00 44 1011.2
20260905230027 38 196 1.6 4.8 0.00 0.00 0.00 43 1011.2
20260905225502 38 190 0.0 4.8 0.00 0.00 0.00 43 1011.2
20260905225004 38 209 0.0 4.8 0.00 0.00 0.00 43 1011.2
20260905224513 38 209 0.0 4.8 0.00 0.00 0.00 43 1011.2
20260905224010 37 203 0.0 4.8 0.00 0.00 0.00 44 1011.2
20260905223508 37 205 0.0 8.0 0.00 0.00 0.00 45 1011.1
20260905223018 37 208 1.6 8.0 0.00 0.00 0.00 45 1011.1
20260905222508 37 157 0.0 6.4 0.00 0.00 0.00 46 1011.1
20260905222009 37 143 0.0 8.0 0.00 0.00 0.00 45 1011.2
20260905221523 37 142 3.2 8.0 0.00 0.00 0.00 45 1011.1
20260905221011 37 153 1.6 4.8 0.00 0.00 0.00 45 1011.2
20260905220515 37 153 0.0 8.0 0.00 0.00 0.00 45 1011.2
20260905220031 37 153 0.0 9.7 0.00 0.00 0.00 44 1011.3
20260905215512 37 164 1.6 9.7 0.00 0.00 0.00 45 1011.4
20260905215013 37 163 0.0 9.7 0.00 0.00 0.00 46 1011.4
20260905214529 37 163 1.6 12.9 0.00 0.00 0.00 46 1011.5
20260905214013 37 190 1.6 14.5 0.00 0.00 0.00 47 1011.4
20260905213506 37 163 3.2 14.5 0.00 0.00 0.00 47 1011.5
20260905213015 37 177 1.6 14.5 0.00 0.00 0.00 47 1011.6
20260905212508 37 135 4.8 14.5 0.00 0.00 0.00 46 1011.6
20260905212007 37 136 0.0 11.3 0.00 0.00 0.00 47 1011.6
20260905211520 37 116 1.6 19.3 0.00 0.00 0.00 46 1011.7
20260905211010 37 120 6.4 19.3 0.00 0.00 0.00 46 1011.7
20260905210510 37 144 1.6 12.9 0.00 0.00 0.00 45 1011.8
20260905210026 38 132 6.4 14.5 0.00 0.00 0.00 44 1011.8
20260905205512 38 164 3.2 14.5 0.00 0.00 0.00 44 1011.9
20260905205012 37 221 0.0 9.7 0.00 0.00 0.00 45 1012.0
20260905204526 37 155 0.0 11.3 0.00 0.00 0.00 46 1012.1
20260905204013 37 122 3.2 12.9 0.00 0.00 0.00 46 1012.2
20260905203515 37 121 3.2 12.9 0.00 0.00 0.00 46 1012.2
20260905203032 37 104 1.6 12.9 0.00 0.00 0.00 47 1012.3
20260905202508 37 183 0.0 16.1 0.00 0.00 0.00 47 1012.3
20260905202004 37 130 3.2 16.1 0.00 0.00 0.00 47 1012.5
20260905201516 37 145 1.6 16.1 0.00 0.00 0.00 48 1012.5
20260905201007 36 105 4.8 12.9 0.00 0.00 0.00 48 1012.6
20260905200508 36 123 1.6 17.7 0.00 0.00 0.00 49 1012.7
20260905200023 36 113 9.7 17.7 0.00 0.00 0.00 48 1012.8
20260905195509 36 121 3.2 11.3 0.00 0.00 0.00 48 1012.8
20260905195011 37 93 4.8 11.3 0.00 0.00 0.00 46 1012.9
20260905194525 38 182 1.6 9.7 0.00 0.00 0.00 46 1013.1
20260905194011 37 182 0.0 9.7 0.00 0.00 0.00 48 1013.1
20260905193503 37 190 0.0 8.0 0.00 0.00 0.00 48 1013.2
20260905193004 37 190 0.0 8.0 0.00 0.00 0.00 47 1013.3
20260905192508 37 228 0.0 8.0 0.00 0.00 0.00 47 1013.4
20260905192006 37 194 0.0 8.0 0.00 0.00 0.00 47 1013.5
20260905191510 37 195 0.0 8.0 0.00 0.00 0.00 48 1013.5
20260905191004 37 217 1.6 8.0 0.00 0.00 0.00 48 1013.6
20260905190508 36 206 0.0 8.0 0.00 0.00 0.00 49 1013.7
20260905190027 36 248 0.0 12.9 0.00 0.00 0.00 49 1013.7
20260905185507 36 205 0.0 12.9 0.00 0.00 0.00 49 1013.8
20260905185013 36 161 3.2 9.7 0.00 0.00 0.00 50 1013.9
20260905184525 36 170 0.0 9.7 0.00 0.00 0.00 52 1014.0
20260905184012 36 187 1.6 14.5 0.00 0.00 0.00 50 1014.1
20260905183509 36 132 4.8 14.5 0.00 0.00 0.00 50 1014.2
20260905183025 36 134 3.2 14.5 0.00 0.00 0.00 50 1014.4
20260905182512 36 166 1.6 14.5 0.00 0.00 0.00 50 1014.4
20260905182004 36 117 6.4 14.5 0.00 0.00 0.00 51 1014.5
20260905181510 36 157 0.0 8.0 0.00 0.00 0.00 50 1014.6
20260905181009 36 198 0.0 8.0 0.00 0.00 0.00 49 1014.6
20260905180504 36 198 0.0 8.0 0.00 0.00 0.00 49 1014.7
20260905180012 36 226 0.0 11.3 0.00 0.00 0.00 50 1014.9
20260905175507 36 231 0.0 11.3 0.00 0.00 0.00 49 1014.9
20260905175008 36 229 0.0 9.7 0.00 0.00 0.00 49 1015.0
20260905174521 36 185 0.0 9.7 0.00 0.00 0.00 51 1015.0
20260905174010 35 245 0.0 9.7 0.00 0.00 0.00 51 1015.1
20260905173510 35 164 1.6 17.7 0.00 0.00 0.00 49 1015.2
20260905173026 35 234 1.6 17.7 0.00 0.00 0.00 51 1015.2
20260905172514 35 140 0.0 14.5 0.00 0.00 0.00 50 1015.2
20260905172014 35 159 3.2 14.5 0.00 0.00 0.00 50 1015.3
20260905171540 34 164 0.0 12.9 0.00 0.00 0.00 53 1015.3
20260905171013 34 98 1.6 12.9 0.00 0.00 0.00 53 1015.3
20260905170504 34 117 4.8 14.5 0.00 0.00 0.00 54 1015.4
20260905170012 35 126 6.4 14.5 0.00 0.00 0.00 53 1015.5
20260905165505 35 128 4.8 14.5 0.00 0.00 0.00 52 1015.5
20260905165007 35 180 0.0 11.3 0.00 0.00 0.00 54 1015.4
20260905164517 35 144 3.2 11.3 0.00 0.00 0.00 54 1015.5
20260905164008 35 161 3.2 12.9 0.00 0.00 0.00 55 1015.5
20260905163510 35 163 0.0 12.9 0.00 0.00 0.00 56 1015.6
20260905163023 35 143 0.0 11.3 0.00 0.00 0.00 56 1015.6
20260905162510 35 148 1.6 11.3 0.00 0.00 0.00 56 1015.5
20260905162013 35 159 0.0 9.7 0.00 0.00 0.00 57 1015.5
20260905161528 35 162 0.0 12.9 0.00 0.00 0.00 58 1015.5
20260905161011 34 185 1.6 12.9 0.00 0.00 0.00 59 1015.4
20260905160515 34 155 3.2 12.9 0.00 0.00 0.00 60 1015.5
20260905160046 33 113 0.0 12.9 0.00 0.00 0.00 61 1015.5
20260905155514 33 151 0.0 9.7 0.00 0.00 0.00 62 1015.5
20260905155002 33 84 0.0 6.4 0.00 0.00 0.00 60 1015.5
20260905154512 33 282 0.0 9.7 0.00 0.00 0.00 60 1015.5
20260905154006 33 281 1.6 11.3 0.00 0.00 0.00 60 1015.5
20260905153506 33 254 0.0 11.3 0.00 0.00 0.00 61 1015.5
20260905153022 33 252 0.0 8.0 0.00 0.00 0.00 62 1015.5
20260905152511 32 252 3.2 12.9 0.00 0.00 0.00 63 1015.5
20260905152016 32 252 3.2 12.9 0.00 0.00 0.00 63 1015.5
20260905151525 32 247 0.0 11.3 0.00 0.00 0.00 65 1015.5
20260905151011 31 245 0.0 11.3 0.00 0.00 0.00 65 1015.4
20260905150512 31 225 0.0 11.3 0.00 0.00 0.00 66 1015.4
20260905150028 31 221 1.6 11.3 0.00 0.00 0.00 66 1015.4
20260905145519 32 263 1.6 9.7 0.00 0.00 0.00 65 1015.3
20260905145014 32 253 1.6 8.0 0.00 0.00 0.00 65 1015.3
20260905144532 31 230 0.0 11.3 0.00 0.00 0.00 67 1015.3
20260905144018 31 236 0.0 11.3 0.00 0.00 0.00 67 1015.2
20260905143504 31 246 0.0 11.3 0.00 0.00 0.00 68 1015.2
20260905143015 31 245 1.6 11.3 0.00 0.00 0.00 67 1015.2
20260905142508 31 248 0.0 11.3 0.00 0.00 0.00 68 1015.2
20260905142010 31 242 3.2 11.3 0.00 0.00 0.00 66 1015.3
20260905141520 32 234 0.0 8.0 0.00 0.00 0.00 65 1015.3
20260905141011 32 233 3.2 8.0 0.00 0.00 0.00 64 1015.3
20260905140514 32 212 0.0 0.0 0.00 0.00 0.00 65 1015.3
20260905140028 32 211 0.0 0.0 0.00 0.00 0.00 65 1015.4
20260905135513 32 211 0.0 0.0 0.00 0.00 0.00 67 1015.3
20260905135012 31 211 0.0 0.0 0.00 0.00 0.00 67 1015.2
20260905134530 31 211 0.0 0.0 0.00 0.00 0.00 68 1015.1
20260905134014 31 211 0.0 0.0 0.00 0.00 0.00 69 1015.0
20260905133515 31 211 0.0 0.0 0.00 0.00 0.00 70 1014.9
20260905133030 30 211 0.0 0.0 0.00 0.00 0.00 72 1015.0
20260905132514 30 211 0.0 0.0 0.00 0.00 0.00 74 1014.9
20260905132008 28 211 0.0 0.0 0.00 0.00 0.00 76 1015.0
20260905131518 28 211 0.0 3.2 0.00 0.00 0.00 78 1015.0
20260905131008 27 211 0.0 3.2 0.00 0.00 0.00 79 1014.9
20260905130512 27 211 0.0 1.6 0.00 0.00 0.00 82 1014.9
20260905130025 26 211 0.0 0.0 0.00 0.00 0.00 83 1014.8
20260905125512 26 211 0.0 0.0 0.00 0.00 0.00 83 1014.8
20260905125012 26 211 0.0 1.6 0.00 0.00 0.00 82 1014.6
20260905124526 26 211 0.0 3.2 0.00 0.00 0.00 82 1014.5
20260905124014 26 211 0.0 3.2 0.00 0.00 0.00 82 1014.4
20260905123513 25 211 0.0 4.8 0.00 0.00 0.00 82 1014.4
20260905123028 25 211 0.0 4.8 0.00 0.00 0.00 83 1014.3
20260905122518 25 212 0.0 1.6 0.00 0.00 0.00 83 1014.4
20260905122020 25 212 0.0 0.0 0.00 0.00 0.00 83 1014.5
20260905121531 25 212 0.0 0.0 0.00 0.00 0.00 83 1014.5
20260905121019 25 212 0.0 0.0 0.00 0.00 0.00 83 1014.5
20260905120508 25 212 0.0 0.0 0.00 0.00 0.00 83 1014.5
20260905120034 25 212 0.0 0.0 0.00 0.00 0.00 83 1014.5
20260905115511 25 212 0.0 0.0 0.00 0.00 0.00 83 1014.5
20260905115012 25 212 0.0 0.0 0.00 0.00 0.00 83 1014.5
20260905114527 25 212 0.0 0.0 0.00 0.00 0.00 83 1014.4
20260905114011 25 212 0.0 0.0 0.00 0.00 0.00 83 1014.5
20260905113516 25 212 0.0 0.0 0.00 0.00 0.00 82 1014.4
20260905113030 25 212 0.0 0.0 0.00 0.00 0.00 81 1014.5
20260905112513 25 212 0.0 0.0 0.00 0.00 0.00 81 1014.5
20260905112016 25 212 0.0 0.0 0.00 0.00 0.00 81 1014.6
20260905111558 25 212 0.0 0.0 0.00 0.00 0.00 81 1014.5
20260905111014 25 212 0.0 0.0 0.00 0.00 0.00 81 1014.5
20260905110516 25 212 0.0 0.0 0.00 0.00 0.00 80 1014.4
20260905110033 25 212 0.0 0.0 0.00 0.00 0.00 80 1014.4
20260905105519 25 212 0.0 0.0 0.00 0.00 0.00 80 1014.4
20260905105007 26 212 0.0 0.0 0.00 0.00 0.00 80 1014.4
20260905104520 26 212 0.0 0.0 0.00 0.00 0.00 80 1014.3
20260905104010 26 212 0.0 0.0 0.00 0.00 0.00 79 1014.3
20260905103514 26 212 0.0 0.0 0.00 0.00 0.00 79 1014.4
20260905103031 26 212 0.0 0.0 0.00 0.00 0.00 79 1014.4
20260905102513 26 212 0.0 0.0 0.00 0.00 0.00 78 1014.4
20260905102003 26 212 0.0 0.0 0.00 0.00 0.00 78 1014.4
20260905101505 26 212 0.0 1.6 0.00 0.00 0.00 78 1014.4
20260905101002 26 212 0.0 1.6 0.00 0.00 0.00 79 1014.3
20260905100504 26 212 0.0 0.0 0.00 0.00 0.00 79 1014.3
20260905100006 26 212 0.0 0.0 0.00 0.00 0.00 79 1014.2
20260905095503 26 212 0.0 0.0 0.00 0.00 0.00 80 1014.1
20260905095005 26 212 0.0 0.0 0.00 0.00 0.00 80 1014.1
20260905094504 26 212 0.0 0.0 0.00 0.00 0.00 80 1014.0
20260905094005 26 212 0.0 0.0 0.00 0.00 0.00 80 1014.1
20260905093504 26 212 0.0 0.0 0.00 0.00 0.00 79 1014.0
20260905093004 26 212 0.0 0.0 0.00 0.00 0.00 79 1014.1
20260905092503 26 212 0.0 0.0 0.00 0.00 0.00 79 1014.1
20260905092003 26 212 0.0 0.0 0.00 0.00 0.00 79 1014.0
20260905091505 26 212 0.0 0.0 0.00 0.00 0.00 79 1014.0
20260905091004 26 212 0.0 0.0 0.00 0.00 0.00 78 1013.9
20260905090503 26 212 0.0 0.0 0.00 0.00 0.00 78 1014.0
20260905090008 26 212 0.0 0.0 0.00 0.00 0.00 78 1013.9
20260905085506 27 212 0.0 0.0 0.00 0.00 0.00 78 1013.8
20260905085004 27 212 0.0 0.0 0.00 0.00 0.00 77 1013.7
20260905084504 27 212 0.0 0.0 0.00 0.00 0.00 77 1013.6
20260905084003 27 212 0.0 0.0 0.00 0.00 0.00 77 1013.6
20260905083507 27 212 0.0 0.0 0.00 0.00 0.00 77 1013.6
20260905083008 27 212 0.0 0.0 0.00 0.00 0.00 77 1013.6
20260905082503 27 212 0.0 3.2 0.00 0.00 0.00 76 1013.6
20260905082005 27 212 0.0 3.2 0.00 0.00 0.00 76 1013.6
20260905081505 27 212 0.0 0.0 0.00 0.00 0.00 76 1013.6
20260905081003 27 212 0.0 0.0 0.00 0.00 0.00 75 1013.6
20260905080508 27 212 0.0 0.0 0.00 0.00 0.00 75 1013.6
20260905080008 27 212 0.0 1.6 0.00 0.00 0.00 74 1013.6
20260905075504 27 212 0.0 1.6 0.00 0.00 0.00 74 1013.7
20260905075006 27 212 0.0 1.6 0.00 0.00 0.00 74 1013.6
20260905074507 27 212 0.0 1.6 0.00 0.00 0.00 74 1013.6
20260905074003 28 213 0.0 1.6 0.00 0.00 0.00 74 1013.7
20260905073504 28 215 0.0 3.2 0.00 0.00 0.00 74 1013.8
20260905073008 28 215 0.0 3.2 0.00 0.00 0.00 74 1013.8
20260905072504 28 215 0.0 0.0 0.00 0.00 0.00 74 1013.8
20260905072003 28 215 0.0 0.0 0.00 0.00 0.00 74 1013.9
20260905071507 28 215 0.0 0.0 0.00 0.00 0.00 74 1014.1
20260905071004 28 215 0.0 0.0 0.00 0.00 0.00 74 1014.2
20260905070507 28 215 0.0 0.0 0.00 0.00 0.00 73 1014.3
20260905070022 28 215 0.0 0.0 0.00 0.00 0.00 73 1014.3
20260905065503 28 215 0.0 0.0 0.00 0.00 0.00 73 1014.2
20260905065005 28 215 0.0 0.0 0.00 0.00 0.00 73 1014.3
20260905064525 28 215 0.0 0.0 0.00 0.00 0.00 72 1014.4
20260905064003 28 215 0.0 0.0 0.00 0.00 0.00 72 1014.4
20260905063504 28 215 0.0 0.0 0.00 0.00 0.00 72 1014.4
20260905063013 28 215 0.0 0.0 0.00 0.00 0.00 71 1014.4
20260905062506 28 215 0.0 0.0 0.00 0.00 0.00 71 1014.4
20260905062005 28 215 0.0 0.0 0.00 0.00 0.00 71 1014.3
20260905061506 28 215 0.0 0.0 0.00 0.00 0.00 71 1014.3
20260905061002 28 215 0.0 0.0 0.00 0.00 0.00 70 1014.2
20260905060504 28 215 0.0 0.0 0.00 0.00 0.00 70 1014.2
20260905060010 28 215 0.0 0.0 0.00 0.00 0.00 70 1014.2
20260905055503 28 215 0.0 0.0 0.00 0.00 0.00 69 1014.2
20260905055006 29 215 0.0 0.0 0.00 0.00 0.00 70 1014.1
20260905054510 29 215 0.0 0.0 0.00 0.00 0.00 69 1014.1
20260905054008 29 215 0.0 1.6 0.00 0.00 0.00 69 1014.1
20260905053504 29 215 0.0 3.2 0.00 0.00 0.00 69 1014.0
20260905053012 29 215 0.0 3.2 0.00 0.00 0.00 69 1013.9
20260905052505 29 215 0.0 1.6 0.00 0.00 0.00 68 1013.9
20260905052006 30 215 0.0 1.6 0.00 0.00 0.00 69 1013.8
20260905051518 30 215 0.0 1.6 0.00 0.00 0.00 68 1013.8
20260905051003 30 215 0.0 1.6 0.00 0.00 0.00 68 1013.8
20260905050503 30 215 0.0 1.6 0.00 0.00 0.00 68 1013.7
20260905050013 30 213 0.0 1.6 0.00 0.00 0.00 68 1013.7
20260905045503 30 213 0.0 1.6 0.00 0.00 0.00 67 1013.8
20260905045005 30 213 0.0 3.2 0.00 0.00 0.00 67 1013.9
20260905044510 30 211 0.0 3.2 0.00 0.00 0.00 66 1013.8
20260905044005 30 228 0.0 8.0 0.00 0.00 0.00 66 1013.9
20260905043503 30 213 0.0 8.0 0.00 0.00 0.00 66 1013.8
20260905043010 30 254 0.0 8.0 0.00 0.00 0.00 66 1013.8
20260905042505 30 207 0.0 3.2 0.00 0.00 0.00 66 1013.8
20260905042004 30 209 0.0 6.4 0.00 0.00 0.00 66 1013.8
20260905041514 30 214 0.0 8.0 0.00 0.00 0.00 66 1013.7
20260905041005 30 215 1.6 8.0 0.00 0.00 0.00 66 1013.7
20260905040503 30 194 0.0 4.8 0.00 0.00 0.00 67 1013.7
20260905040018 30 175 0.0 8.0 0.00 0.00 0.00 68 1013.7
20260905035504 30 174 0.0 8.0 0.00 0.00 0.00 68 1013.7
20260905035003 31 173 0.0 6.4 0.00 0.00 0.00 69 1013.8
20260905034523 31 167 0.0 6.4 0.00 0.00 0.00 68 1013.9
20260905034007 31 167 0.0 1.6 0.00 0.00 0.00 67 1013.9
20260905033504 31 167 0.0 3.2 0.00 0.00 0.00 66 1013.8
20260905033024 31 165 0.0 9.7 0.00 0.00 0.00 66 1013.8
20260905032508 31 164 0.0 9.7 0.00 0.00 0.00 65 1013.8
20260905032006 31 167 0.0 4.8 0.00 0.00 0.00 65 1013.7
20260905031510 31 168 0.0 4.8 0.00 0.00 0.00 64 1013.7
20260905031005 31 167 0.0 1.6 0.00 0.00 0.00 63 1013.7
20260905030506 31 167 0.0 4.8 0.00 0.00 0.00 62 1013.7
20260905030012 31 167 0.0 4.8 0.00 0.00 0.00 62 1013.6
20260905025507 31 167 0.0 0.0 0.00 0.00 0.00 62 1013.6
20260905025007 31 167 0.0 0.0 0.00 0.00 0.00 61 1013.5
20260905024515 31 167 0.0 1.6 0.00 0.00 0.00 61 1013.5
20260905024007 31 167 0.0 6.4 0.00 0.00 0.00 61 1013.5
20260905023506 32 167 0.0 6.4 0.00 0.00 0.00 60 1013.4
20260905023016 32 167 0.0 6.4 0.00 0.00 0.00 61 1013.3
20260905022506 32 164 0.0 6.4 0.00 0.00 0.00 60 1013.2
20260905022003 32 155 0.0 6.4 0.00 0.00 0.00 59 1013.2
20260905021510 32 156 0.0 8.0 0.00 0.00 0.00 59 1013.2
20260905021004 32 141 0.0 11.3 0.00 0.00 0.00 59 1013.1
20260905020502 32 167 0.0 11.3 0.00 0.00 0.00 59 1012.9
20260905020013 32 167 0.0 6.4 0.00 0.00 0.00 59 1012.9
20260905015504 32 163 0.0 8.0 0.00 0.00 0.00 59 1012.9
20260905015009 32 163 0.0 8.0 0.00 0.00 0.00 59 1012.8
20260905014515 32 166 0.0 9.7 0.00 0.00 0.00 59 1012.8
20260905014009 32 167 0.0 9.7 0.00 0.00 0.00 58 1012.7
20260905013512 33 168 0.0 11.3 0.00 0.00 0.00 58 1012.7
20260905013018 33 169 0.0 11.3 0.00 0.00 0.00 57 1012.5
20260905012508 33 157 1.6 11.3 0.00 0.00 0.00 57 1012.5
20260905012009 33 170 1.6 9.7 0.00 0.00 0.00 57 1012.5
20260905011517 33 175 0.0 9.7 0.00 0.00 0.00 56 1012.4
20260905011004 33 155 0.0 14.5 0.00 0.00 0.00 56 1012.3
20260905010503 33 155 1.6 16.1 0.00 0.00 0.00 55 1012.3
20260905010008 33 180 0.0 16.1 0.00 0.00 0.00 55 1012.3
20260905005503 33 174 1.6 12.9 0.00 0.00 0.00 56 1012.2
20260905005005 34 155 1.6 12.9 0.00 0.00 0.00 56 1012.2
20260905004515 34 163 0.0 14.5 0.00 0.00 0.00 56 1012.2
20260905004007 34 153 1.6 14.5 0.00 0.00 0.00 54 1012.1
20260905003509 34 160 3.2 14.5 0.00 0.00 0.00 54 1012.1
20260905003023 35 162 3.2 14.5 0.00 0.00 0.00 53 1012.1
20260905002508 35 144 4.8 14.5 0.00 0.00 0.00 53 1012.0
20260905002006 35 196 3.2 14.5 0.00 0.00 0.00 52 1011.9
20260905001518 35 146 3.2 14.5 0.00 0.00 0.00 50 1011.9
20260905001010 35 169 0.0 14.5 0.00 0.00 0.00 49 1011.8